Weather History for Fort Myers, FL

Change the Weather History Date:

Saturday, December 8, 2012

  Actual Average Record
Temperature  
Mean Temperature 75 °F 68 °F  
Max Temperature 84 °F 78 °F 90 °F (1978)
Min Temperature 65 °F 58 °F 37 °F (1937)
Degree Days  
Heating Degree Days 0 2  
Month to date heating degree days 0 11  
Since 1 July heating degree days 15 29  
Cooling Degree Days 10 4  
Month to date cooling degree days 53 39  
Year to date cooling degree days 4266 3902  
Growing Degree Days 23 (Base 50)    
Moisture  
Dew Point 67 °F    
Average Humidity 87    
Maximum Humidity 100    
Minimum Humidity 55    
Precipitation  
Precipitation 0.37 in 0.05 in 0.95 in (1979)
Month to date precipitation 0.39 0.37  
Year to date precipitation 47.82 54.59  
Sea Level Pressure  
Sea Level Pressure 30.00 in    
Wind  
Wind Speed 3 mph (SE)    
Max Wind Speed 15 mph    
Max Gust Speed 21 mph    
Visibility 9 miles    
Events Rain    
T = Trace of Precipitation, MM = Missing Value Source: NWS Daily Summary

Daily Weather History Graph

Daily Weather History Graph

Search for Another Location

Airport:

Trip Planner

Search our weather history database for the weather conditions in past years. The results will help you decide how hot, cold, wet, or windy it might be!

Date:

Astronomy

Dec. 08, 2012 Rise Set
Actual Time 7:03 AM EST 5:35 PM EST
Civil Twilight 6:38 AM EST 6:00 PM EST
Nautical Twilight 6:09 AM EST 6:29 PM EST
Astronomical Twilight 5:41 AM EST 6:57 PM EST
Moon 1:51 AM EST (12/8) 1:43 PM EST (12/8)
Length of Visible Light 11h 21m
Length of Day
10h 31m
Waning Crescent, 28% of the Moon is Illuminated
Dec 8
Waning Crescent
Dec 13
New
Dec 20
First Quarter
Dec 28
Full
Jan 4
Last Quarter

Hourly Weather History & Observations

Time (EST) Temp. Heat Index Dew Point Humidity Pressure Visibility Wind Dir Wind Speed Gust Speed Precip Events Conditions
12:53 AM 69.1 °F - 66.9 °F 93% 29.98 in 10.0 mi ESE 3.5 mph - N/A   Overcast
1:53 AM 66.9 °F - 66.0 °F 97% 29.98 in 10.0 mi Calm Calm - N/A   Clear
2:53 AM 66.9 °F - 64.9 °F 93% 29.97 in 10.0 mi SE 3.5 mph - N/A   Clear
3:53 AM 66.9 °F - 64.9 °F 93% 29.97 in 10.0 mi Calm Calm - N/A   Clear
4:53 AM 66.0 °F - 64.9 °F 96% 29.98 in 10.0 mi Calm Calm - N/A   Clear
5:53 AM 64.9 °F - 64.0 °F 97% 29.99 in 9.0 mi Calm Calm - N/A   Clear
6:53 AM 64.9 °F - 64.0 °F 97% 30.00 in 10.0 mi Calm Calm - N/A   Clear
7:53 AM 66.9 °F - 64.9 °F 93% 30.02 in 10.0 mi Calm Calm - N/A   Clear
8:53 AM 73.0 °F - 68.0 °F 84% 30.04 in 10.0 mi ESE 5.8 mph - N/A   Clear
9:53 AM 77.0 °F - 68.0 °F 74% 30.04 in 10.0 mi ESE 9.2 mph - N/A   Clear
10:53 AM 80.1 °F 82.7 °F 68.0 °F 67% 30.03 in 10.0 mi ESE 10.4 mph - N/A   Partly Cloudy
11:53 AM 80.1 °F 82.3 °F 66.9 °F 64% 30.01 in 10.0 mi SSE 5.8 mph - N/A   Clear
12:53 PM 80.1 °F 82.1 °F 66.0 °F 62% 29.99 in 10.0 mi Calm Calm - N/A   Partly Cloudy
1:53 PM 82.0 °F 83.8 °F 64.9 °F 56% 29.96 in 10.0 mi South 4.6 mph - N/A   Partly Cloudy
2:53 PM 80.1 °F 82.1 °F 66.0 °F 62% 29.95 in 10.0 mi West 6.9 mph - N/A   Overcast
3:25 PM 71.6 °F - 69.8 °F 94% 29.97 in 1.8 mi SSW 9.2 mph - 0.08 in Rain Rain
3:53 PM 71.1 °F - 69.1 °F 93% 29.98 in 1.8 mi South 5.8 mph - 0.33 in Rain Rain
4:01 PM 71.6 °F - 69.8 °F 94% 29.98 in 3.0 mi SSW 3.5 mph - 0.02 in Rain Light Rain
4:53 PM 72.0 °F - 69.1 °F 91% 29.98 in 10.0 mi NNW 6.9 mph - 0.04 in   Overcast
5:53 PM 71.1 °F - 68.0 °F 90% 30.00 in 10.0 mi Calm Calm - N/A   Overcast
6:53 PM 70.0 °F - 68.0 °F 93% 30.01 in 10.0 mi NE 4.6 mph - N/A   Clear
7:53 PM 69.1 °F - 68.0 °F 96% 30.02 in 10.0 mi ENE 5.8 mph - N/A   Clear
8:53 PM 69.1 °F - 66.9 °F 93% 30.04 in 10.0 mi Calm Calm - N/A   Clear
9:53 PM 69.1 °F - 66.9 °F 93% 30.05 in 10.0 mi NE 3.5 mph - N/A   Mostly Cloudy
10:53 PM 69.1 °F - 66.9 °F 93% 30.05 in 10.0 mi NE 3.5 mph - N/A   Mostly Cloudy
11:53 PM 68.0 °F - 66.9 °F 96% 30.05 in 10.0 mi Calm Calm - 0.00 in   Clear